TimeEDT,TemperatureF,Dew PointF,Humidity,Sea Level PressureIn,VisibilityMPH,Wind Direction,Wind SpeedMPH,Gust SpeedMPH,PrecipitationIn,Events,Conditions,WindDirDegrees,DateUTC
12:54 AM,53.1,52.0,96,30.17,10.0,Calm,Calm,-,N/A,,Clear,0,2013-08-07 04:54:00
1:54 AM,52.0,51.1,97,30.17,10.0,Calm,Calm,-,N/A,,Clear,0,2013-08-07 05:54:00
2:54 AM,53.1,51.1,93,30.18,10.0,Calm,Calm,-,N/A,,Mostly Cloudy,0,2013-08-07 06:54:00
3:54 AM,53.1,52.0,96,30.18,10.0,Calm,Calm,-,N/A,,Overcast,0,2013-08-07 07:54:00
4:54 AM,54.0,52.0,93,30.18,10.0,Calm,Calm,-,N/A,,Overcast,0,2013-08-07 08:54:00
5:54 AM,54.0,53.1,97,30.18,10.0,Calm,Calm,-,N/A,,Overcast,0,2013-08-07 09:54:00
6:54 AM,55.0,53.1,93,30.18,10.0,Calm,Calm,-,N/A,,Overcast,0,2013-08-07 10:54:00
7:54 AM,57.0,54.0,89,30.19,10.0,Calm,Calm,-,N/A,,Overcast,0,2013-08-07 11:54:00
8:54 AM,60.1,55.9,86,30.19,10.0,Calm,Calm,-,N/A,,Overcast,0,2013-08-07 12:54:00
9:54 AM,64.0,57.9,80,30.19,10.0,Calm,Calm,-,N/A,,Partly Cloudy,0,2013-08-07 13:54:00
10:54 AM,70.0,60.1,71,30.17,10.0,Variable,5.8,-,N/A,,Clear,0,2013-08-07 14:54:00
11:54 AM,73.9,57.9,57,30.14,10.0,SE,8.1,-,N/A,,Partly Cloudy,140,2013-08-07 15:54:00
12:54 PM,75.9,55.0,48,30.14,10.0,SE,11.5,18.4,N/A,,Partly Cloudy,140,2013-08-07 16:54:00
1:54 PM,75.0,52.0,44,30.14,10.0,South,8.1,-,N/A,,Scattered Clouds,190,2013-08-07 17:54:00
2:54 PM,78.1,51.1,39,30.13,10.0,SSW,6.9,-,N/A,,Overcast,200,2013-08-07 18:54:00
3:54 PM,77.0,53.1,43,30.11,10.0,South,9.2,-,N/A,,Mostly Cloudy,180,2013-08-07 19:54:00
4:54 PM,75.0,53.1,46,30.11,10.0,South,9.2,-,N/A,,Overcast,190,2013-08-07 20:54:00
5:54 PM,75.0,54.0,48,30.09,10.0,South,8.1,-,N/A,,Partly Cloudy,170,2013-08-07 21:54:00
6:54 PM,73.0,55.0,53,30.09,10.0,South,5.8,-,N/A,,Scattered Clouds,170,2013-08-07 22:54:00
7:54 PM,70.0,55.9,61,30.07,10.0,SE,4.6,-,N/A,,Scattered Clouds,130,2013-08-07 23:54:00
8:54 PM,68.0,55.9,65,30.09,10.0,Calm,Calm,-,N/A,,Partly Cloudy,0,2013-08-08 00:54:00
9:54 PM,66.9,57.9,73,30.10,10.0,Calm,Calm,-,N/A,,Overcast,0,2013-08-08 01:54:00
10:54 PM,66.0,59.0,78,30.09,10.0,Calm,Calm,-,0.00,,Overcast,0,2013-08-08 02:54:00
11:54 PM,66.0,60.1,81,30.09,10.0,South,3.5,-,N/A,,Overcast,170,2013-08-08 03:54:00